| time (UTC) | temp F | wind direction | speed knots | gust knots | rain 1hr in | rain 24hr in | rain mn in | humidity % | barometer mb |
| 20260831094522 | 70 | 188 | 2.6 | 5.2 | 0.00 | 0.00 | 0.00 | 80 | 1014.5 |
| 20260831093025 | 71 | 188 | 2.6 | 6.1 | 0.00 | 0.00 | 0.00 | 79 | 1014.5 |
| 20260831091518 | 72 | 190 | 1.7 | 6.1 | 0.00 | 0.00 | 0.00 | 78 | 1014.4 |
| 20260831090017 | 72 | 190 | 3.5 | 6.1 | 0.00 | 0.00 | 0.00 | 77 | 1014.4 |
| 20260831084523 | 72 | 185 | 2.6 | 6.1 | 0.00 | 0.00 | 0.00 | 77 | 1014.3 |
| 20260831083014 | 73 | 186 | 2.6 | 7.8 | 0.00 | 0.00 | 0.00 | 76 | 1014.2 |
| 20260831081512 | 74 | 185 | 2.6 | 5.2 | 0.00 | 0.00 | 0.00 | 74 | 1014.2 |
| 20260831080010 | 74 | 192 | 2.6 | 5.2 | 0.00 | 0.00 | 0.00 | 73 | 1014.3 |
| 20260831074511 | 74 | 199 | 2.6 | 5.2 | 0.00 | 0.00 | 0.00 | 73 | 1014.2 |
| 20260831073009 | 75 | 205 | 2.6 | 5.2 | 0.00 | 0.00 | 0.00 | 73 | 1014.3 |
| 20260831071507 | 75 | 196 | 3.5 | 6.1 | 0.00 | 0.00 | 0.00 | 72 | 1014.4 |
| 20260831070007 | 75 | 190 | 3.5 | 7.0 | 0.00 | 0.00 | 0.00 | 73 | 1014.5 |
| 20260831063005 | 75 | 190 | 3.5 | 6.1 | 0.00 | 0.00 | 0.00 | 72 | 1014.7 |
| 20260831061503 | 75 | 188 | 2.6 | 5.2 | 0.00 | 0.00 | 0.00 | 73 | 1014.8 |
| 20260831060002 | 74 | 188 | 0.0 | 2.6 | 0.00 | 0.00 | 0.00 | 76 | 1015.0 |
| 20260831054601 | 74 | 188 | 0.0 | 0.0 | 0.00 | 0.00 | 0.00 | 77 | 1014.9 |
| 20260831053131 | 75 | 188 | 0.0 | 2.6 | 0.00 | 0.00 | 0.00 | 75 | 1015.1 |
| 20260831051604 | 75 | 190 | 2.6 | 5.2 | 0.00 | 0.00 | 0.00 | 73 | 1015.0 |
| 20260831050054 | 74 | 192 | 0.0 | 0.9 | 0.00 | 0.00 | 0.00 | 77 | 1015.0 |
| 20260831044553 | 75 | 192 | 0.0 | 0.0 | 0.00 | 0.00 | 0.00 | 76 | 1015.0 |
| 20260831043053 | 76 | 192 | 0.0 | 0.0 | 0.00 | 0.00 | 0.00 | 75 | 1015.0 |
| 20260831041556 | 75 | 192 | 0.0 | 4.3 | 0.00 | 0.00 | 0.00 | 75 | 1014.8 |
| 20260831040052 | 77 | 191 | 0.0 | 0.0 | 0.00 | 0.00 | 0.00 | 72 | 1014.9 |
| 20260831034552 | 78 | 191 | 0.0 | 3.5 | 0.00 | 0.00 | 0.00 | 68 | 1014.9 |
| 20260831033105 | 79 | 192 | 0.9 | 3.5 | 0.00 | 0.00 | 0.00 | 67 | 1014.9 |
| 20260831031552 | 80 | 193 | 0.9 | 4.3 | 0.00 | 0.00 | 0.00 | 65 | 1014.9 |
| 20260831030049 | 79 | 187 | 2.6 | 6.1 | 0.00 | 0.00 | 0.00 | 66 | 1014.7 |
| 20260831024549 | 80 | 193 | 2.6 | 4.3 | 0.00 | 0.00 | 0.00 | 64 | 1014.8 |
| 20260831023048 | 80 | 190 | 0.0 | 4.3 | 0.00 | 0.00 | 0.00 | 63 | 1014.8 |
| 20260831021548 | 79 | 191 | 1.7 | 3.5 | 0.00 | 0.00 | 0.00 | 66 | 1014.5 |
| 20260831020105 | 78 | 191 | 0.0 | 0.9 | 0.00 | 0.00 | 0.00 | 69 | 1014.6 |
| 20260831014546 | 79 | 191 | 0.0 | 2.6 | 0.00 | 0.00 | 0.00 | 65 | 1014.6 |
| 20260831013046 | 80 | 191 | 0.0 | 1.7 | 0.00 | 0.00 | 0.00 | 64 | 1014.5 |
| 20260831011547 | 80 | 191 | 1.7 | 6.1 | 0.00 | 0.00 | 0.00 | 63 | 1014.2 |
| 20260831010044 | 80 | 194 | 2.6 | 5.2 | 0.00 | 0.00 | 0.00 | 63 | 1014.3 |
| 20260831004545 | 80 | 194 | 0.0 | 2.6 | 0.00 | 0.00 | 0.00 | 64 | 1014.3 |
| 20260831003044 | 82 | 194 | 0.9 | 3.5 | 0.00 | 0.00 | 0.00 | 62 | 1014.3 |
| 20260831001543 | 83 | 194 | 1.7 | 5.2 | 0.00 | 0.00 | 0.00 | 60 | 1014.4 |
| 20260831000045 | 84 | 194 | 2.6 | 5.2 | 0.00 | 0.00 | 0.00 | 60 | 1014.5 |
| 20260830234541 | 84 | 186 | 1.7 | 6.1 | 0.00 | 0.00 | 0.00 | 61 | 1014.5 |
| 20260830233140 | 84 | 188 | 2.6 | 6.1 | 0.00 | 0.00 | 0.00 | 62 | 1014.5 |
| 20260830231540 | 86 | 180 | 3.5 | 7.8 | 0.00 | 0.00 | 0.00 | 58 | 1014.5 |
| 20260830230039 | 86 | 225 | 3.5 | 8.7 | 0.00 | 0.00 | 0.00 | 56 | 1014.5 |
| 20260830224538 | 87 | 180 | 3.5 | 8.7 | 0.00 | 0.00 | 0.00 | 56 | 1014.4 |
| 20260830223038 | 86 | 196 | 3.5 | 10.4 | 0.00 | 0.00 | 0.00 | 56 | 1014.4 |
| 20260830221541 | 87 | 221 | 4.3 | 8.7 | 0.00 | 0.00 | 0.00 | 56 | 1014.3 |
| 20260830220036 | 87 | 201 | 4.3 | 10.4 | 0.00 | 0.00 | 0.00 | 55 | 1014.4 |
| 20260830214535 | 87 | 178 | 4.3 | 9.6 | 0.00 | 0.00 | 0.00 | 57 | 1014.6 |
| 20260830213037 | 87 | 215 | 4.3 | 6.1 | 0.00 | 0.00 | 0.00 | 57 | 1014.6 |
| 20260830211532 | 87 | 190 | 6.1 | 10.4 | 0.00 | 0.00 | 0.00 | 53 | 1014.7 |
| 20260830210030 | 88 | 186 | 6.1 | 11.3 | 0.00 | 0.00 | 0.00 | 53 | 1014.9 |
| 20260830204529 | 89 | 198 | 3.5 | 9.6 | 0.00 | 0.00 | 0.00 | 51 | 1014.9 |
| 20260830203028 | 88 | 182 | 6.1 | 9.6 | 0.00 | 0.00 | 0.00 | 54 | 1015.0 |
| 20260830201526 | 87 | 172 | 7.0 | 10.4 | 0.00 | 0.00 | 0.00 | 54 | 1015.2 |
| 20260830200024 | 87 | 184 | 6.1 | 10.4 | 0.00 | 0.00 | 0.00 | 55 | 1015.4 |
| 20260830194525 | 87 | 215 | 6.1 | 10.4 | 0.00 | 0.00 | 0.00 | 53 | 1015.5 |
| 20260830193022 | 88 | 207 | 4.3 | 8.7 | 0.00 | 0.00 | 0.00 | 56 | 1015.5 |
| 20260830191521 | 87 | 178 | 4.3 | 10.4 | 0.00 | 0.00 | 0.00 | 60 | 1015.6 |
| 20260830190023 | 86 | 212 | 5.2 | 9.6 | 0.00 | 0.00 | 0.00 | 59 | 1015.7 |
| 20260830184519 | 86 | 182 | 5.2 | 9.6 | 0.00 | 0.00 | 0.00 | 61 | 1015.8 |
| 20260830183016 | 86 | 186 | 4.3 | 11.3 | 0.00 | 0.00 | 0.00 | 62 | 1016.2 |
| 20260830181615 | 85 | 177 | 5.2 | 10.4 | 0.00 | 0.00 | 0.00 | 62 | 1016.3 |
| 20260830180011 | 83 | 185 | 5.2 | 9.6 | 0.00 | 0.00 | 0.00 | 64 | 1016.4 |
| 20260830174510 | 83 | 211 | 4.3 | 8.7 | 0.00 | 0.00 | 0.00 | 64 | 1016.7 |
| 20260830173009 | 82 | 185 | 6.1 | 10.4 | 0.00 | 0.00 | 0.00 | 64 | 1016.6 |
| 20260830171508 | 82 | 209 | 4.3 | 10.4 | 0.00 | 0.00 | 0.00 | 66 | 1016.8 |
| 20260830170023 | 81 | 186 | 5.2 | 11.3 | 0.00 | 0.00 | 0.00 | 69 | 1016.8 |
| 20260830164506 | 82 | 186 | 5.2 | 9.6 | 0.00 | 0.00 | 0.00 | 68 | 1016.9 |
| 20260830163001 | 80 | 189 | 3.5 | 8.7 | 0.00 | 0.00 | 0.00 | 72 | 1017.0 |
| 20260830161608 | 79 | 194 | 2.6 | 7.0 | 0.00 | 0.00 | 0.00 | 73 | 1017.0 |
| 20260830160105 | 78 | 198 | 3.5 | 6.1 | 0.00 | 0.00 | 0.00 | 77 | 1016.9 |
| 20260830154556 | 77 | 179 | 1.7 | 6.1 | 0.00 | 0.00 | 0.00 | 81 | 1016.9 |
| 20260830153052 | 73 | 165 | 0.0 | 4.3 | 0.00 | 0.00 | 0.00 | 86 | 1016.8 |
| 20260830151603 | 71 | 171 | 0.0 | 0.9 | 0.00 | 0.00 | 0.00 | 87 | 1017.3 |
| 20260830150049 | 70 | 172 | 0.0 | 0.9 | 0.00 | 0.00 | 0.00 | 87 | 1017.4 |
| 20260830144555 | 71 | 172 | 0.0 | 0.9 | 0.00 | 0.00 | 0.00 | 85 | 1017.5 |
| 20260830143048 | 71 | 175 | 0.0 | 0.9 | 0.00 | 0.00 | 0.00 | 83 | 1017.6 |
| 20260830141542 | 72 | 188 | 0.0 | 0.0 | 0.00 | 0.00 | 0.00 | 81 | 1017.1 |
| 20260830140041 | 71 | 188 | 0.9 | 6.1 | 0.00 | 0.00 | 0.00 | 80 | 1016.7 |
| 20260830134544 | 71 | 181 | 3.5 | 7.0 | 0.00 | 0.00 | 0.00 | 80 | 1016.4 |
| 20260830133038 | 70 | 203 | 4.3 | 9.6 | 0.00 | 0.00 | 0.00 | 81 | 1016.2 |
| 20260830131544 | 70 | 206 | 3.5 | 7.0 | 0.00 | 0.00 | 0.00 | 82 | 1015.9 |
| 20260830130037 | 70 | 196 | 4.3 | 7.8 | 0.00 | 0.00 | 0.00 | 82 | 1015.9 |
| 20260830124538 | 69 | 190 | 4.3 | 8.7 | 0.00 | 0.00 | 0.00 | 82 | 1016.0 |
| 20260830123039 | 70 | 194 | 4.3 | 7.8 | 0.00 | 0.00 | 0.00 | 82 | 1015.9 |
| 20260830121536 | 70 | 199 | 3.5 | 6.1 | 0.00 | 0.00 | 0.00 | 81 | 1016.0 |
| 20260830120035 | 70 | 195 | 2.6 | 7.0 | 0.00 | 0.00 | 0.00 | 81 | 1016.2 |
| 20260830114533 | 70 | 203 | 3.5 | 6.1 | 0.00 | 0.00 | 0.00 | 81 | 1016.2 |
| 20260830113033 | 69 | 209 | 3.5 | 7.0 | 0.00 | 0.00 | 0.00 | 82 | 1016.1 |
| 20260830111534 | 69 | 210 | 2.6 | 6.1 | 0.00 | 0.00 | 0.00 | 82 | 1015.9 |
| 20260830110033 | 69 | 194 | 2.6 | 8.7 | 0.00 | 0.00 | 0.00 | 82 | 1015.6 |
| 20260830104532 | 69 | 198 | 3.5 | 7.0 | 0.00 | 0.00 | 0.00 | 82 | 1015.6 |
| 20260830103033 | 69 | 187 | 3.5 | 7.0 | 0.00 | 0.00 | 0.00 | 82 | 1015.7 |
| 20260830101530 | 69 | 188 | 3.5 | 6.1 | 0.00 | 0.00 | 0.00 | 82 | 1015.7 |